Regional Weather Roundup
Issued by NWS Burlington, VT

Home | Current Version | Previous Version | Text Only | Print | Product List | Glossary On
Versions: 1 2 3 4 5 6 7 8 9 10 11 12 13 14 15 16 17 18 19 20 21 22 23 24 25 26 27 28 29 30 31 32 33 34 35 36 37 38 39 40 41 42 43 44 45 46 47 48 49 50
000
ASUS41 KBTV 301630
RWRBTV
VERMONT REGIONAL WEATHER ROUNDUP
NATIONAL WEATHER SERVICE BURLINGTON VT
1200 PM EDT MON MAY 30 2016

NOTE: "FAIR" INDICATES FEW OR NO CLOUDS BELOW 12,000 FEET WITH NO
SIGNIFICANT WEATHER AND/OR OBSTRUCTIONS TO VISIBILITY.

* THESE REPORTS ARE NOT UNDER NWS QUALITY CONTROL AND/OR DO NOT
  REPORT WEATHER SUCH AS PRECIPITATION AND FOG.

VTZ001>019-301700-
_____VERMONT_____


CITY           SKY/WX    TMP DP  RH WIND       PRES   REMARKS
BURLINGTON     FAIR      80  64  58 S17       29.85F
MONTPELIER     FAIR      76  63  64 VRB5      29.94F
MORRISVILLE    FAIR      76  63  64 S7        29.89F
ST. JOHNSBURY*   N/A     71  61  70 MISG      29.90F
LYNDONVILLE*   FAIR      70  64  81 E7        29.93F
RUTLAND*       FAIR      78  60  53 W10       29.92F
SPRINGFIELD    FAIR      74  64  71 SE9       29.93F
HIGHGATE*      FAIR      79  65  62 S10G16    29.82F
NEWPORT*       FAIR      74  65  72 S9        29.88F
BENNINGTON     FAIR      75  62  64 VRB6      29.94F
GALLUP MILLS*    N/A     70 N/A N/A MISG        N/A
UNION VILLAGE*   N/A     77 N/A N/A MISG        N/A
MT. MANSFIELD*   N/A     66 N/A N/A W15         N/A

_____LAKE CHAMPLAIN_____


CITY           SKY/WX    TMP DP  RH WIND       PRES   REMARKS
BURTON ISLAND*   N/A     72  66  83 S13         N/A
COLCHESTER RF*   N/A     68  66  94 S21         N/A
DIAMOND ISL*     N/A     73  66  78 SE20        N/A

$$

NYZ007-026>031-035-052-083-087-301700-
_____NORTHERN NEW YORK_____


CITY           SKY/WX    TMP DP  RH WIND       PRES   REMARKS
PLATTSBURGH    MOSUNNY   77  67  71 SE15      29.82F
SARANAC LAKE   MOSUNNY   78  59  51 SW14G22   29.88F
MASSENA        SUNNY     82  63  52 SW13G22   29.82F
OGDENSBURG*    SUNNY     81  63  54 W13G21    29.84S
STARK FALLS*     N/A     32 N/A N/A SW14        N/A  WCI  22
WATERTOWN      SUNNY     75  61  61 SW16      29.89F
ALBANY         MOSUNNY   75  64  68 S9        29.93F
GLENS FALLS    SUNNY     78  65  63 S13G20    29.90F

$$
NHZ002-005-011-301700-
_____NEW HAMPSHIRE_____


CITY           SKY/WX    TMP DP  RH WIND       PRES   REMARKS
LEBANON        SUNNY     75  63  66 S9        29.91F
MT WASHINGTON  FOG       50  50 100 W29G35      N/A  VSB 0
PLYMOUTH       FAIR      71  61  71 E3        29.93F
WHITEFIELD     PTSUNNY   70  63  78 E3        29.93F

$$

_____REGIONAL QUEBEC LOCATIONS_____


CITY           SKY/WX    TMP DP  RH WIND       PRES   REMARKS
MONTREAL       MOSUNNY   81  63  54 SW21      29.78F
QUEBEC CITY    CLOUDY    72  66  83 W6        29.77F
SHERBROOKE     SUNNY     75  64  69 SW9G17    29.84F

_____REGIONAL ONTARIO LOCATIONS_____


CITY           SKY/WX    TMP DP  RH WIND       PRES   REMARKS
OTTAWA         PTSUNNY   82  57  42 SW18G26   29.80F

______KEY______
VSB  - VISIBILITY IN MILES
WCI  - WIND CHILL INDEX
HX   - HEAT INDEX
$$
NNNN



USA.gov is the U.S. government's official web portal to all federal, state and local government web resources and services.